Weather History for Beaver Island, MI

Change the Weather History Date:

Sunday, August 18, 2013

  Actual Average Record
Temperature  
Mean Temperature 70 °F -  
Max Temperature 76 °F 73 °F 87 °F (1955)
Min Temperature 63 °F 56 °F 40 °F (1962)
Cooling Degree Days 4    
Growing Degree Days 20 (Base 50)    
Moisture  
Dew Point 59 °F    
Average Humidity 70    
Maximum Humidity 86    
Minimum Humidity 51    
Precipitation  
Precipitation 0.00 in - - ()
Sea Level Pressure  
Sea Level Pressure 30.16 in    
Wind  
Wind Speed 8 mph (SW)    
Max Wind Speed 15 mph    
Max Gust Speed 20 mph    
Visibility 10 miles    
Events      
Averages and records for this station are not official NWS values.
T = Trace of Precipitation, MM = Missing Value Source: NWS Daily Summary

Daily Weather History Graph

Daily Weather History Graph

Search for Another Location

Airport:

Trip Planner

Search our weather history database for the weather conditions in past years. The results will help you decide how hot, cold, wet, or windy it might be!

Date:

Astronomy

Aug. 18, 2013 Rise Set
Actual Time 6:46 AM EDT 8:44 PM EDT
Civil Twilight 6:14 AM EDT 9:16 PM EDT
Nautical Twilight 5:34 AM EDT 9:55 PM EDT
Astronomical Twilight 4:51 AM EDT 10:38 PM EDT
Moon 6:53 PM EDT (8/18) 3:50 AM EDT (8/18)
Length of Visible Light 15h 02m
Length of Day
13h 58m
Waxing Gibbous, 92% of the Moon is Illuminated
Aug 18
Waxing Gibbous
Aug 20
Full
Aug 28
Last Quarter
Sep 5
New
Sep 12
First Quarter

Hourly Weather History & Observations

Time (EDT) Temp. Dew Point Humidity Pressure Visibility Wind Dir Wind Speed Gust Speed Precip Events Conditions
12:15 AM 65.1 °F 56.5 °F 74% 30.17 in 10.0 mi SSW 6.9 mph - N/A   Clear
12:35 AM 65.3 °F 56.8 °F 74% 30.17 in 10.0 mi SSW 6.9 mph - N/A   Clear
12:55 AM 64.9 °F 57.2 °F 76% 30.18 in 10.0 mi SSW 6.9 mph - N/A   Clear
1:15 AM 64.9 °F 57.6 °F 77% 30.17 in 10.0 mi SSW 5.8 mph - N/A   Clear
1:35 AM 64.8 °F 57.7 °F 78% 30.17 in 10.0 mi South 6.9 mph - N/A   Clear
1:55 AM 64.9 °F 57.9 °F 78% 30.17 in 10.0 mi SSW 5.8 mph - N/A   Clear
2:15 AM 64.6 °F 57.7 °F 78% 30.18 in 10.0 mi SSW 5.8 mph - N/A   Clear
2:35 AM 64.6 °F 58.3 °F 80% 30.18 in 10.0 mi SSW 5.8 mph - N/A   Clear
2:55 AM 64.8 °F 58.5 °F 80% 30.18 in 10.0 mi SSW 4.6 mph - N/A   Clear
3:15 AM 63.7 °F 58.1 °F 82% 30.18 in 10.0 mi SSW 5.8 mph - N/A   Clear
3:35 AM 64.2 °F 58.5 °F 82% 30.18 in 10.0 mi SSW 5.8 mph - N/A   Clear
3:55 AM 64.4 °F 58.6 °F 82% 30.18 in 10.0 mi SSW 4.6 mph - N/A   Clear
4:15 AM 63.7 °F 58.6 °F 84% 30.19 in 10.0 mi SSW 5.8 mph - N/A   Clear
4:35 AM 63.9 °F 59.0 °F 84% 30.19 in 10.0 mi SSW 5.8 mph - N/A   Clear
4:55 AM 64.4 °F 59.2 °F 83% 30.19 in 10.0 mi SSW 5.8 mph - N/A   Clear
5:15 AM 64.4 °F 59.5 °F 84% 30.19 in 10.0 mi SSW 5.8 mph - N/A   Clear
5:35 AM 64.0 °F 59.2 °F 84% 30.19 in 10.0 mi SSW 6.9 mph - N/A   Clear
5:55 AM 64.2 °F 59.4 °F 84% 30.19 in 10.0 mi SSW 6.9 mph - N/A   Clear
6:15 AM 64.2 °F 59.9 °F 86% 30.19 in 10.0 mi SSW 8.1 mph - N/A   Clear
6:35 AM 64.4 °F 59.9 °F 85% 30.19 in 10.0 mi SSW 6.9 mph - N/A   Clear
6:55 AM 64.4 °F 59.9 °F 85% 30.19 in 10.0 mi SSW 8.1 mph - N/A   Clear
7:15 AM 64.6 °F 60.1 °F 85% 30.20 in 10.0 mi SW 6.9 mph - N/A   Clear
7:35 AM 65.1 °F 60.6 °F 85% 30.20 in 10.0 mi SSW 6.9 mph - N/A   Clear
7:55 AM 66.4 °F 61.2 °F 83% 30.20 in 10.0 mi SW 9.2 mph - N/A   Clear
8:15 AM 67.6 °F 61.2 °F 80% 30.21 in 10.0 mi SSW 8.1 mph - N/A   Clear
8:35 AM 68.9 °F 59.9 °F 73% 30.20 in 10.0 mi SSW 9.2 mph - N/A   Clear
8:55 AM 69.8 °F 59.4 °F 69% 30.21 in 10.0 mi SSW 9.2 mph - N/A   Clear
9:15 AM 71.1 °F 58.6 °F 65% 30.20 in 10.0 mi SSW 9.2 mph - N/A   Clear
9:35 AM 71.8 °F 57.6 °F 61% 30.20 in 10.0 mi SW 9.2 mph - N/A   Clear
9:55 AM 73.0 °F 57.7 °F 59% 30.20 in 10.0 mi SW 11.5 mph 16.1 mph N/A   Clear
10:15 AM 73.2 °F 58.8 °F 61% 30.20 in 10.0 mi SW 10.4 mph 17.3 mph N/A   Clear
10:35 AM 72.9 °F 58.8 °F 61% 30.20 in 10.0 mi SW 12.7 mph - N/A   Clear
10:55 AM 74.3 °F 58.5 °F 58% 30.20 in 10.0 mi SW 13.8 mph - N/A   Clear
11:15 AM 75.7 °F 59.2 °F 56% 30.20 in 10.0 mi SSW 10.4 mph 16.1 mph N/A   Clear
11:35 AM 74.5 °F 58.8 °F 58% 30.20 in 10.0 mi SW 9.2 mph - N/A   Clear
11:55 AM 75.9 °F 59.4 °F 56% 30.19 in 10.0 mi SW 12.7 mph 16.1 mph N/A   Clear
12:15 PM 75.9 °F 59.4 °F 56% 30.19 in 10.0 mi SW 9.2 mph - N/A   Clear
12:35 PM 75.9 °F 59.7 °F 57% 30.19 in 10.0 mi SW 11.5 mph 17.3 mph N/A   Clear
12:55 PM 76.1 °F 59.4 °F 56% 30.18 in 10.0 mi SW 13.8 mph - N/A   Clear
1:15 PM 75.2 °F 58.5 °F 56% 30.18 in 10.0 mi SW 12.7 mph - N/A   Clear
1:35 PM 75.4 °F 56.3 °F 51% 30.18 in 10.0 mi SW 15.0 mph - N/A   Clear
1:55 PM 75.4 °F 57.6 °F 54% 30.17 in 10.0 mi WSW 15.0 mph - N/A   Clear
2:15 PM 75.2 °F 59.0 °F 57% 30.17 in 10.0 mi SW 15.0 mph 19.6 mph N/A   Clear
2:35 PM 75.0 °F 57.7 °F 55% 30.16 in 10.0 mi SW 15.0 mph - N/A   Clear
2:55 PM 75.2 °F 57.9 °F 55% 30.16 in 10.0 mi SW 11.5 mph - N/A   Clear
3:14 PM 75.4 °F 58.1 °F 55% 30.16 in 10.0 mi SW 10.4 mph 18.4 mph N/A   Clear
3:35 PM 74.5 °F 57.9 °F 56% 30.15 in 10.0 mi SW 9.2 mph - N/A   Clear
3:55 PM 75.0 °F 57.2 °F 54% 30.15 in 10.0 mi SW 11.5 mph - N/A   Clear
4:15 PM 75.7 °F 56.5 °F 51% 30.14 in 10.0 mi WSW 11.5 mph - N/A   Clear
4:35 PM 75.4 °F 56.8 °F 52% 30.14 in 10.0 mi WSW 10.4 mph - N/A   Clear
4:55 PM 75.9 °F 57.0 °F 52% 30.14 in 10.0 mi SW 10.4 mph - N/A   Clear
5:15 PM 76.5 °F 57.6 °F 52% 30.14 in 10.0 mi WSW 8.1 mph - N/A   Clear
5:35 PM 75.2 °F 58.3 °F 56% 30.13 in 10.0 mi SW 8.1 mph - N/A   Clear
5:55 PM 74.3 °F 58.5 °F 58% 30.13 in 10.0 mi SW 9.2 mph - N/A   Clear
6:15 PM 73.4 °F 58.8 °F 60% 30.13 in 10.0 mi SW 11.5 mph 17.3 mph N/A   Clear
6:35 PM 72.1 °F 59.9 °F 65% 30.13 in 10.0 mi SW 9.2 mph - N/A   Clear
6:55 PM 72.1 °F 59.4 °F 64% 30.12 in 10.0 mi WSW 10.4 mph - N/A   Clear
7:15 PM 70.9 °F 59.7 °F 68% 30.12 in 10.0 mi SW 8.1 mph - N/A   Clear
7:35 PM 70.2 °F 59.0 °F 68% 30.11 in 10.0 mi WSW 9.2 mph - N/A   Clear
7:55 PM 69.6 °F 58.6 °F 68% 30.10 in 10.0 mi SW 10.4 mph - N/A   Clear
8:15 PM 68.9 °F 59.7 °F 72% 30.09 in 10.0 mi WSW 9.2 mph - N/A   Clear
8:35 PM 67.8 °F 59.4 °F 74% 30.09 in 10.0 mi WSW 9.2 mph - N/A   Clear
8:55 PM 67.6 °F 59.0 °F 74% 30.09 in 10.0 mi SW 8.1 mph - N/A   Clear
9:15 PM 67.3 °F 59.4 °F 76% 30.09 in 10.0 mi SW 9.2 mph - N/A   Clear
9:35 PM 66.6 °F 59.7 °F 79% 30.09 in 10.0 mi SW 6.9 mph - N/A   Clear
9:55 PM 66.6 °F 59.4 °F 78% 30.09 in 10.0 mi SSW 5.8 mph - N/A   Clear
10:15 PM 66.9 °F 59.9 °F 78% 30.08 in 10.0 mi SW 8.1 mph - N/A   Clear
10:35 PM 66.6 °F 59.9 °F 79% 30.08 in 10.0 mi SW 5.8 mph - N/A   Clear
10:55 PM 66.2 °F 59.5 °F 79% 30.08 in 10.0 mi SW 4.6 mph - N/A   Clear
11:15 PM 65.7 °F 59.9 °F 82% 30.07 in 10.0 mi SW 6.9 mph - N/A   Clear
11:35 PM 66.6 °F 59.7 °F 79% 30.07 in 10.0 mi SW 5.8 mph - N/A   Clear
11:55 PM 66.2 °F 59.2 °F 78% 30.07 in 10.0 mi SSW 6.9 mph - N/A   Clear